Regional Weather Roundup
Issued by NWS

Home | Current Version | Previous Version | Graphics & Text | Print | Product List | Glossary Off
Versions: 1 2 3 4 5 6 7 8 9 10 11 12 13 14 15 16 17 18 19 20 21 22 23 24 25 26 27 28 29 30 31 32 33 34 35 36 37 38 39 40 41 42 43 44 45 46 47 48 49 50

000
ASUS44 KFWD 281615
RWRTX
NORTH TEXAS HOURLY WEATHER ROUNDUP
NATIONAL WEATHER SERVICE FORT WORTH TX
1100 AM CDT TUE JUN 28 2016

NOTE: "FAIR" INDICATES FEW OR NO CLOUDS BELOW 12,000 FEET WITH NO
SIGNIFICANT WEATHER AND/OR OBSTRUCTIONS TO VISIBILITY.

TXZ118-119-281700-
DALLAS/FORT WORTH METROPLEX

CITY           SKY/WX    TMP DP  RH WIND       PRES   REMARKS
DFW AIRPORT    PTSUNNY   91  71  51 N8        30.09S HX  97
DALLAS LOVE    MOSUNNY   92  72  51 N8        30.09S HX  99
FTW MEACHAM    MOSUNNY   92  72  51 N9        30.10S HX  99
DAL-EXECUTIVE  SUNNY     91  72  53 N8        30.09S HX  98
FTW-ALLIANCE   MOSUNNY   90  71  53 NW6       30.11S HX  96
FTW-NAS-JRB    PTSUNNY   89  71  55 NW8       30.10F HX  95
FTW-SPINKS     SUNNY     88  73  62 N6        30.12S HX  96
ARLINGTON      SUNNY     93  73  52 NW9       30.10S HX 102
GRAND PRAIRIE  SUNNY     88  72  58 CALM      30.10F HX  94
ADDISON        MOSUNNY   90  73  58 N9        30.10  HX  98
MESQUITE       SUNNY     90  72  55 N6        30.09S HX  96
LANCASTER      SUNNY     90  75  59 N5        30.10R HX 100
$$

TXZ091>094-102>105-117-120-121-131>134-281700-
NORTH CENTRAL TEXAS

CITY           SKY/WX    TMP DP  RH WIND       PRES   REMARKS
SHRMAN/DENISON SUNNY     89  74  62 E6        30.13S HX  97
GAINESVILLE    SUNNY     87  74  66 N7        30.14S HX  95
BOWIE          SUNNY     87  72  60 N3        30.14S HX  94
BRIDGEPORT     MOSUNNY   88  72  59 N5        30.14S HX  94
DECATUR        SUNNY     88  69  53 N5        30.13S HX  92
DENTON         MOSUNNY   90  71  53 N10       30.10F HX  96
MCKINNEY       SUNNY     89  75  63 NE8       30.10S HX  99
GREENVILLE     MOSUNNY   88  73  62 NE5       30.10R HX  96
ROCKWALL       SUNNY     88  74  64 N7        30.08S HX  97
TERRELL        SUNNY     90  73  57 VRB6      30.09S HX  98
WAXAHACHIE     MOSUNNY   90  74  59 NW9       30.10S HX  99
CLEBURNE       SUNNY     90  77  66 NW7       30.12S HX 102
GRANBURY       SUNNY     90  72  55 NW6       30.12S HX  96
$$

TXZ083>090-098>101-113>116-127>130-139>142-154-155-281700-
WESTERN NORTH TEXAS

CITY           SKY/WX    TMP DP  RH WIND       PRES   REMARKS
WICHITA FALLS  PTSUNNY   88  69  53 VRB3      30.14F HX  92
WF-KICKAPOO    SUNNY     88  69  52 NE6       30.15S HX  92
VERNON         MOSUNNY   90  64  41 NE3       30.16S HX  91
ABILENE        CLOUDY    88  67  49 CALM      30.19R HX  91
ABILENE-DYESS  SUNNY     89  67  49 NW6       30.17S HX  92
BRECKENRIDGE   CLOUDY    89  67  48 NW6       30.15S HAZE    HX  92
GRAHAM         SUNNY     89  71  54 CALM      30.13S HX  94
MINERAL WELLS  SUNNY     88  73  61 N7        30.11F HX  95
STEPHENVILLE   SUNNY     90  68  48 NW5       30.16F HX  93
COMANCHE       MOSUNNY   90  70  51 W6        30.15S HX  95
BROWNWOOD      MOSUNNY   90  68  48 W7        30.16S HX  93
COLEMAN        SUNNY     89  65  44 W3        30.17F HX  91
$$

TXZ143>147-156>162-174-175-281700-
CENTRAL TEXAS

CITY           SKY/WX    TMP DP  RH WIND       PRES   REMARKS
WACO           SUNNY     92  72  51 N8        30.08F HX  99
WACO-TSTC      SUNNY     91  72  52 NW5       30.08F HX  98
WACO-MCGREGOR  SUNNY     90  74  59 VRB6      30.09S HX  99
HILLSBORO      SUNNY     88  75  66 N8        30.09F HX  97
CORSICANA      MOSUNNY   90  73  57 NE6       30.09S HX  98
MEXIA          SUNNY     90  74  59 NW6       30.08R HX  99
CAMERON        SUNNY     92  73  53 W7        30.07S HX 100
TEMPLE         SUNNY     91  74  57 NW7       30.09F HX 100
KILLEEN        NOT AVBL
KILLEEN-SKYLRK SUNNY     90  72  55 W5        30.10S HX  97
GATESVILLE     SUNNY     91  70  49 NW5       30.13R HX  97
HAMILTON       SUNNY     91  68  46 N9        30.14S HX  94
LAMPASAS       SUNNY     91  73  55 NW3       30.12S HX  99
$$

TXZ095>097-106>112-122>126-135>138-148>153-164>167-281700-
EAST TEXAS

CITY           SKY/WX    TMP DP  RH WIND       PRES   REMARKS
PARIS          SUNNY     86  66  51 NE10      30.11S
SULPHUR SPRNGS SUNNY     86  72  63 NE7       30.12S HX  92
MOUNT PLEASANT SUNNY     85  70  60 N9        30.10S HX  90
GILMER         SUNNY     83  72  68 N3        30.08S
MINEOLA        SUNNY     86  73  66 NE3       30.10S HX  93
TYLER          SUNNY     89  73  59 NE7       30.08S HX  97
LONGVIEW       SUNNY     86  73  65 N8        30.07S HX  93
MARSHALL       SUNNY     82  71  69 N7        30.10R
ATHENS         SUNNY     88  72  58 NE3       30.06S HX  94
PALESTINE      SUNNY     89  75  63 CALM      30.08S HX 100
JACKSONVILLE   SUNNY     85  74  68 N6        30.10S HX  93
HENDERSON      SUNNY     86  73  64 N7        30.09R HX  93
CENTER         PTSUNNY  N/A N/A N/A MISG      30.06R
NACOGDOCHES    SUNNY     88  73  62 N5        30.06R HX  96
LUFKIN         SUNNY     86  73  65 N7        30.06R HX  93
$$

SUPPLEMENTAL OBSERVATIONS (CENTRAL)

CITY           SKY/WX    TMP DP  RH WIND       PRES   REMARKS
LAKE TEXOMA      N/A     84  73  70 E3          N/A  HX  91
CADDO GRASSLND   N/A     90  75  62 E3          N/A  HX 100
PAT MAYSE LAKE   N/A     84  70  61 N7          N/A
GREENVILLE       N/A     84  72  65 NE8         N/A
CEDAR HILL       N/A     91  73  55 N3          N/A  HX 100
ATHENS           N/A     93  73  52 E3          N/A  HX 102
LAKE LIMESTONE   N/A     91  75  59 NW3         N/A  HX 102
MCGREGOR         N/A     93  73  52 N5          N/A  HX 102
TEMPLE           N/A     93  72  49 NW3         N/A  HX 100
$$

SUPPLEMENTAL OBSERVATIONS (WEST)

CITY           SKY/WX    TMP DP  RH WIND       PRES   REMARKS
MILLERS CREEK    N/A     93  70  46 N6G16       N/A  HX  99
POSSUM KINGDOM   N/A     90  70  51 N6          N/A  HX  95
LBJ GRASSLAND    N/A     90  72  55 N6          N/A  HX  96
GRANBURY         N/A     91  73  55 N7          N/A  HX 100
COMANCHE         N/A     91  68  46 NW9         N/A  HX  95
HAMBY            N/A     91  66  43 NW5         N/A  HX  94
IVIE RESERVOIR   N/A     90  66  45 W2          N/A  HX  92
COLORADO BEND    N/A     91  68  46 NE3         N/A  HX  95
$$

SUPPLEMENTAL OBSERVATIONS (EAST)

CITY           SKY/WX    TMP DP  RH WIND       PRES   REMARKS
TEXARKANA        N/A     84  72  65 NE6         N/A
LINDEN           N/A     88  72  58 NE3         N/A  HX  94
CADDO LAKE       N/A     86  73  66 N3          N/A  HX  93
LUFKIN           N/A     88  75  66 MISG        N/A  HX  97
N SABINE NF      N/A     86  75  70 MISG        N/A  HX  95
$$

SUPPLEMENTAL OBSERVATIONS ARE A COLLECTION OF AUTOMATED INSTRUMENTS
THAT ARE MAINTAINED BY A VARIETY OF FEDERAL AND STATE AGENCIES.
CERTAIN ELEMENTS...SUCH AS HUMIDITY VALUES AND SUSTAINED WIND
SPEEDS...MAY BE APPROXIMATED.




USA.gov is the U.S. government's official web portal to all federal, state and local government web resources and services.